Погода в Благовещенском

Россия / Архангельская область     61°27′37″N   42°33′26″E
темп.,
°C
ветер,
м/с
пор.,
м/с
влажн.,
%
обл.,
%
осадки,
мм/ч
давл.,
гПа
погр.,
м
16 июня, ср
ср1600:00+14зюз2576100 0.0 100691
03:00+13зюз2676100 0.0 1007156
06:00+16з3763100 0.0 1007496
09:00+18з364281 0.0 10081602
12:00+21зсз5728100 0.0 10083203
15:00+20зюз683562 0.0 10092652
18:00+17с37485 0.0 10111266
21:00+13з116839 0.0 101212
17 июня, чт
чт1700:00+10зюз117684 0.1 101311
03:00+10зюз118695 0.3 101523
06:00+13зсз38715 0.0 1016413
09:00+17зсз694141 0.0 10172230
12:00+19сз69285 0.0 10182544
15:00+20сз58255 0.0 10192650
18:00+19сз48295 0.0 10202501
21:00+13ссз22535 0.0 102218
18 июня, пт
пт1800:00+9ююз115616 0.0 102310
03:00+8ю23605 0.0 102451
06:00+12ююз265793 0.0 1024195
09:00+21юз473637 0.0 10221034
12:00+24зюз5834100 0.0 10211809
15:00+25зюз4938100 0.0 10192118
18:00+26зюз5104189 0.0 10172241
21:00+19зюз245998 0.0 101776
19 июня, сб
сб1900:00+16юз397664 0.0 1017163
03:00+16юз311710 0.0 1017333
06:00+20зюз412580 0.0 1016720
09:00+25з611470 0.0 10151113
12:00+28зсз6104279 0.0 10162270
15:00+24сз486157 0.1 10181126
18:00+24сз485227 0.0 10191413
21:00+20сз22735 0.0 102033
20 июня, вс
вс2000:00+15всв23605 0.0 102249
03:00+13юв22595 0.0 102327
06:00+18ююв365239 0.0 1022270
09:00+22ю36710 0.4 1020625
12:00+29зюз593646 0.0 10182733
15:00+28з484397 0.0 10171899
18:00+26зюз385177 0.0 1017874
21:00+23юз226884 0.0 101634